Regional Weather Roundup
Issued by NWS

Home | Current Version | Previous Version | Text Only | Print | Product List | Glossary On
Versions: 1 2 3 4 5 6 7 8 9 10 11 12 13 14 15 16 17 18 19 20 21 22 23 24 25 26 27 28 29 30 31 32 33 34 35 36 37 38 39 40 41 42 43 44 45 46 47 48 49 50
000
ASUS44 KMEG 201810
RWRTN
TENNESSEE HOURLY STATE WEATHER ROUNDUP
NATIONAL WEATHER SERVICE MEMPHIS TN
100 PM CDT WED SEP 20 2017

TNZ002-004-019-021-049-052-054-088>092-201900-
WEST TENNESSEE

CITY           SKY/WX    TMP DP  RH WIND       PRES   REMARKS
MEMPHIS INTL   MOSUNNY   88  73  61 W12G25    30.00F HX  95
NWS MEMPHIS      N/A     87 N/A N/A MISG        N/A
JACKSON        PTSUNNY   87  74  64 SW6       30.01F HX  95
DYERSBURG      PTSUNNY   89  74  60 VRB7      30.00F HX  98
SOMERVILLE     MOSUNNY   88  73  62 S7        30.00F HX  96
COVINGTON      MOSUNNY   90  73  58 SW12      29.99F HX  98
BOLIVAR        MOSUNNY   88  72  58 SW6G12    30.01F HX  94
PARIS          SUNNY     86  72  62 SW9       30.00F HX  92
HUNTINGDON     MOSUNNY   86  72  62 W7G14     30.00F HX  92
LEXINGTON      PTSUNNY   86  72  62 W5        30.01F HX  92
SELMER         SUNNY     88  72  58 VRB6      30.02F HX  94
SAVANNAH       MOSUNNY   90  72  55 SW8       30.01F HX  96
$$

TNZ008-025-027-028-033-062-065-066-201900-
NORTH MIDDLE TENNESSEE

CITY           SKY/WX    TMP DP  RH WIND       PRES   REMARKS
NASHVILLE      PTSUNNY   88  70  55 VRB6      30.04F HX  93
PORTLAND       MOSUNNY   84  73  70 S6        30.03F HX  91
CLARKSVILLE    MOSUNNY   87  71  58 VRB5      30.01F HX  93
SMYRNA         PTSUNNY   85  72  64 SE3       30.06F HX  90
COOKEVILLE     MOSUNNY   84  72  65 SW6       30.06F
GALLATIN       SUNNY     86  72  62 S5        30.06F HX  92
CROSSVILLE     MOSUNNY   80  67  64 VRB5      30.11F
$$

TNZ061-075-076-078-094-096-097-201900-
SOUTH MIDDLE TENNESSEE

CITY           SKY/WX    TMP DP  RH WIND       PRES   REMARKS
FAYETTEVILLE   SUNNY     84  70  61 CALM      30.06F
TULLAHOMA      MOSUNNY   82  66  57 E3        30.08F
WINCHESTER     MOSUNNY   82  70  65 CALM        N/A
MCMINNVILLE    MOSUNNY   86  72  62 CALM      30.07F HX  92
COLUMBIA       SUNNY     86  70  58 CALM      30.02F HX  90
SHELBYVILLE    SUNNY     84  72  65 CALM      30.05F
$$

TNZ017-018-042-046-047-201900-
NORTHEAST TENNESSEE

CITY           SKY/WX    TMP DP  RH WIND       PRES   REMARKS
TRI CITIES     MOSUNNY   83  64  52 N5        30.08F
ELIZABETHTON   MOSUNNY   82  64  54 W9        30.08F
$$

TNZ012-013-036-069-073-074-201900-
CENTRAL EAST TENNESSEE

CITY           SKY/WX    TMP DP  RH WIND       PRES   REMARKS
KNOXVILLE      MOSUNNY   82  66  58 CALM      30.06F
OAK RIDGE      SUNNY     81  66  60 SE3       30.07F
DOWNTOWN KNOXV MOSUNNY   82  68  61 E5        30.05F
GATLINBURG     SUNNY     88  63  42 VRB5      30.06F
MORRISTOWN     SUNNY     81  64  57 CALM      30.07F
JACKSBORO      SUNNY     82  70  65 VRB5      30.10F
$$

TNZ083-085-099-201900-
SOUTHEAST TENNESSEE

CITY           SKY/WX    TMP DP  RH WIND       PRES   REMARKS
CHATTANOOGA    MOSUNNY   85  66  53 N5        30.06F
DAYTON         CLEAR     82  72  69 CALM      30.05F
$$

SKY/WX REPORTED AS FAIR MEANS FEW OR NO CLOUDS BELOW
12 THOUSAND FEET.





USA.gov is the U.S. government's official web portal to all federal, state and local government web resources and services.